This demonstration page uses our WeatherBlox Daily Observations layout. Learn more.

Left ArrowRight Arrow

31.31129, -92.44514

Hourly Observations for August 8, 2022

Temp ( °F °C ) Dew Point ( °F °C ) Humidity (%) Winds ( mph kmh ) Pressure ( in mb ) Visibility ( mi km ) Precip ( " mm )
12:53 am 00:53 Clear 75 23.9 71 21.7 88 88 S 5 7 30.09 1019 10 16 0.00 0.00
1:53 am 01:53 Clear 74 23.3 70 21.1 88 88 Calm 30.09 1019 10 16 0.00 0.00
2:53 am 02:53 Clear 74 23.3 70 21.1 88 88 Calm 30.08 1019 10 16 0.00 0.00
3:53 am 03:53 Clear 73 22.8 70 21.1 90 90 Calm 30.08 1019 10 16 0.00 0.00
4:53 am 04:53 Clear 73 22.8 70 21.1 90 90 Calm 30.08 1019 10 16 0.00 0.00
5:53 am 05:53 Clear 73 22.8 70 21.1 90 90 Calm 30.08 1019 10 16 0.00 0.00
6:53 am 06:53 Sunny 73 22.8 70 21.1 90 90 Calm 30.10 1019 10 16 0.00 0.00
7:53 am 07:53 Sunny 78 25.6 72 22.2 82 82 Calm 30.11 1020 10 16 0.00 0.00
8:53 am 08:53 Sunny 82 27.8 73 22.8 74 74 VRB 3 6 30.12 1020 10 16 0.00 0.00
9:53 am 09:53 Sunny 86 30 74 23.3 67 67 Calm 30.11 1020 10 16 0.00 0.00
10:53 am 10:53 Sunny 89 31.7 72 22.2 57 57 VRB 3 6 30.11 1020 10 16 0.00 0.00
11:53 am 11:53 Mostly Sunny 93 33.9 72 22.2 51 51 SSE 5 7 30.10 1019 10 16 0.00 0.00
12:53 pm 12:53 Sunny 94 34.4 69 20.6 45 45 S 7 11 30.08 1019 10 16 0.00 0.00
1:53 pm 13:53 Sunny 96 35.6 68 20 40 40 Calm 30.05 1018 10 16 0.00 0.00
2:53 pm 14:53 Sunny 96 35.6 68 20 40 40 VRB 6 9 30.02 1017 10 16 0.00 0.00
3:53 pm 15:53 Partly Cloudy 97 36.1 71 21.7 43 43 VRB 5 7 30.00 1016 10 16 0.00 0.00
4:53 pm 16:53 Sunny 96 35.6 68 20 40 40 S 8 13 29.99 1016 10 16 0.00 0.00
5:53 pm 17:53 Sunny 96 35.6 72 22.2 46 46 SSE 13 20 29.99 1016 10 16 0.00 0.00
6:53 pm 18:53 Sunny 93 33.9 71 21.7 49 49 SSE 8 13 29.98 1015 10 16 0.00 0.00
7:53 pm 19:53 Sunny 87 30.6 73 22.8 63 63 S 13 20 30.01 1016 10 16 0.00 0.00
8:53 pm 20:53 Clear 84 28.9 72 22.2 67 67 S 7 11 30.05 1018 10 16 0.00 0.00
9:53 pm 21:53 Clear 82 27.8 72 22.2 72 72 SSE 6 9 30.06 1018 10 16 0.00 0.00
10:53 pm 22:53 Clear 81 27.2 72 22.2 74 74 Calm 30.06 1018 10 16 0.00 0.00
11:53 pm 23:53 Clear 79 26.1 73 22.8 82 82 SE 8 13 30.06 1018 10 16 0.00 0.00

Powered by AerisWeather